[[{"header":{"parameterUnit":"m.s-1","parameterCategory":1,"la1":30.2991,"la2":30.254,"lo1":-89.0895,"lo2":-89.0444,"dy":0.0017,"dx":0.0017,"nx":28,"ny":28,"refTime":"2024-09-25T09:00:00:Z","depth":0,"parameterNumber":2,"parameterNumberName":"U-component_of_WINDS"},"data":[0,0,0,0,0,0,0,0,0,0,0,0,0,0,0,0,0,0,0,0,0,0,0,0,0,0,0,0,0,0,0,0,0,0,0,0,0,0,0,0,0,0,0,0,0,0,0,0,0,0,0,0,0,0,0,0,0,0,-0.8642,-0.8642,0,-0.8613,-0.8612,-0.8612,-0.8589,-0.8588,-0.8588,-0.8588,-0.8556,-0.8556,-0.8555,0,0,0,0,0,0,0,0,0,0,0,0,0,-0.8678,-0.8678,-0.8643,-0.8642,-0.8642,-0.8613,-0.8612,-0.8612,-0.8589,-0.8588,-0.8588,-0.8588,-0.8556,-0.8556,-0.8555,0,0,0,0,0,0,0,0,0,0,0,0,0,-0.8657,-0.8678,-0.8643,-0.8627,-0.8625,-0.8613,-0.8612,-0.8612,-0.8589,-0.8588,-0.8588,-0.8588,-0.8557,-0.8556,-0.8555,-0.8556,0,0,-0.8552,-0.8552,0,0,0,0,0,0,0,0,-0.8658,-0.8656,-0.8629,-0.8628,-0.8626,-0.8604,-0.8613,-0.8593,-0.8589,-0.8602,-0.8588,-0.8587,-0.8572,-0.857,-0.8565,-0.8555,-0.8553,-0.8552,-0.8551,-0.8551,-0.8551,0,0,0,0,0,0,0,-0.866,-0.8657,-0.8631,-0.8629,-0.8627,-0.8621,-0.8617,-0.861,-0.859,-0.8601,-0.8599,-0.8596,-0.8571,-0.8566,-0.8564,-0.8553,-0.8552,-0.8551,-0.8551,-0.855,-0.8542,-0.8543,0,0,0,0,0,0,-0.8664,-0.8658,-0.8632,-0.863,-0.8642,-0.862,-0.8617,-0.8611,-0.859,-0.8586,-0.8597,-0.8595,-0.8568,-0.8565,-0.8563,-0.8563,-0.8551,-0.855,-0.855,-0.8542,-0.8542,-0.8543,0,0,0,0,0,0,-0.8665,-0.8662,-0.8633,-0.8644,-0.864,-0.862,-0.8614,-0.8611,-0.8606,-0.8586,-0.8582,-0.8595,-0.8568,-0.8564,-0.8558,-0.8562,-0.855,-0.8549,-0.8541,-0.8542,-0.8542,-0.8564,0,0,0,0,0,0,-0.8666,-0.8662,-0.8663,-0.8644,-0.8639,-0.8629,-0.8615,-0.8611,-0.8604,-0.8602,-0.8584,-0.858,-0.8567,-0.856,-0.8557,-0.856,-0.8548,-0.8541,-0.8542,-0.8542,-0.8562,-0.8565,-0.8567,0,0,0,0,0,-0.8667,-0.8669,-0.8663,-0.866,-0.8639,-0.8629,-0.8626,-0.8611,-0.8605,-0.8605,-0.8592,-0.8581,-0.8562,-0.8559,-0.8556,-0.8559,-0.8541,-0.8541,-0.8542,-0.8562,-0.8564,-0.8567,0,0,0,0,0,0,-0.8688,-0.8666,-0.8659,-0.8655,-0.8644,-0.8625,-0.8624,-0.8614,-0.8605,-0.8603,-0.8585,-0.8581,-0.8577,-0.8567,-0.8565,-0.856,-0.855,-0.855,-0.8566,-0.8568,-0.857,-0.8572,-0.8547,0,0,0,0,0,-0.8692,-0.8686,-0.8668,-0.8666,-0.8661,-0.8644,-0.8639,-0.8628,-0.8616,-0.8611,-0.8598,-0.8586,-0.8578,-0.8573,-0.8564,-0.8561,-0.8557,-0.8562,-0.8564,-0.8566,-0.8566,-0.8565,-0.8567,-0.8545,-0.8545,-0.8545,0,0,-0.8701,-0.8688,-0.8685,-0.867,-0.866,-0.8654,-0.864,-0.8634,-0.8629,-0.861,-0.8603,-0.8594,-0.8579,-0.8575,-0.8573,-0.8568,-0.8571,-0.8567,-0.8569,-0.8568,-0.8566,-0.8568,-0.857,-0.8546,-0.8546,-0.8546,0,0,-0.8713,-0.8703,-0.8701,-0.8691,-0.8677,-0.8666,-0.8666,-0.8648,-0.8641,-0.8635,-0.862,-0.8615,-0.86,-0.8591,-0.8584,-0.8594,-0.8583,-0.8592,-0.8603,-0.8602,-0.8603,-0.8605,-0.8609,-0.861,-0.8592,-0.8592,-0.8592,0,-0.8725,-0.8715,-0.87,-0.8696,-0.8689,-0.8673,-0.867,-0.8662,-0.8645,-0.8641,-0.8636,-0.8618,-0.8607,-0.8601,-0.8604,-0.8599,-0.8598,-0.8593,-0.8604,-0.8606,-0.8607,-0.861,-0.8612,-0.8593,-0.8593,-0.8593,-0.8593,0,-0.8731,-0.8725,-0.8725,-0.871,-0.8704,-0.87,-0.8684,-0.868,-0.867,-0.866,-0.8654,-0.864,-0.8629,-0.8627,-0.8617,-0.8619,-0.8616,-0.8608,-0.8598,-0.861,-0.8613,-0.8614,-0.8595,-0.8595,-0.8594,-0.8594,0,0,-0.8754,-0.8732,-0.8732,-0.8726,-0.871,-0.8704,-0.87,-0.8689,-0.8686,-0.8675,-0.8671,-0.866,-0.8653,-0.8645,-0.8635,-0.8634,-0.8643,-0.8625,-0.8625,-0.8629,-0.8645,-0.8651,-0.8653,-0.8636,-0.8636,-0.8636,-0.8646,0,-0.8764,-0.8755,-0.8742,-0.8738,-0.8733,-0.8717,-0.8714,-0.8704,-0.8694,-0.8688,-0.8677,-0.8669,-0.866,-0.8655,-0.8654,-0.8642,-0.8646,-0.8641,-0.8632,-0.8632,-0.8636,-0.8654,-0.8661,-0.8671,-0.8647,-0.8647,-0.8648,0,-0.8773,-0.8764,-0.876,-0.8745,-0.8742,-0.8739,-0.8728,-0.8723,-0.8711,-0.8704,-0.8697,-0.8685,-0.868,-0.8672,-0.8665,-0.8662,-0.8658,-0.8652,-0.8652,-0.865,-0.864,-0.8653,-0.8673,-0.8675,-0.8649,-0.8649,-0.8649,0,-0.879,-0.8777,-0.8773,-0.8768,-0.875,-0.8749,-0.8741,-0.8729,-0.8724,-0.8715,-0.8711,-0.8702,-0.8696,-0.8689,-0.8676,-0.8671,-0.867,-0.8661,-0.8665,-0.8665,-0.8665,-0.8665,-0.8684,-0.8662,-0.8662,-0.8662,-0.8662,0,-0.8802,-0.88,-0.8781,-0.8778,-0.8776,-0.8761,-0.8759,-0.875,-0.874,-0.8735,-0.8722,-0.8718,-0.87,-0.8695,-0.8684,-0.868,-0.8678,-0.8672,-0.8669,-0.8673,-0.8674,-0.8669,-0.8668,-0.8663,-0.8663,-0.8663,-0.8662,0,-0.882,-0.8807,-0.8802,-0.8786,-0.8782,-0.8781,-0.8768,-0.8765,-0.8755,-0.875,-0.8747,-0.8732,-0.8724,-0.8711,-0.8699,-0.8692,-0.869,-0.8685,-0.8694,-0.8693,-0.8697,-0.8697,-0.8715,-0.8716,-0.8694,-0.8694,-0.8694,0,-0.8828,-0.8826,-0.8811,-0.8807,-0.88,-0.8794,-0.8789,-0.8775,-0.877,-0.8757,-0.8756,-0.8748,-0.874,-0.8729,-0.8717,-0.8708,-0.8703,-0.871,-0.8701,-0.8706,-0.8703,-0.8703,-0.8703,-0.8711,-0.8712,-0.8712,-0.8712,0,-0.8843,-0.8837,-0.883,-0.8822,-0.8816,-0.8809,-0.88,-0.8798,-0.8782,-0.8777,-0.877,-0.8764,-0.8753,-0.8745,-0.8735,-0.8727,-0.8717,-0.8715,-0.8716,-0.8719,-0.8724,-0.8722,-0.8699,-0.8714,-0.8714,-0.8714,-0.8714,-0.8714,-0.8856,-0.8854,-0.8843,-0.8837,-0.8829,-0.8822,-0.8819,-0.8809,-0.8803,-0.8793,-0.8785,-0.8778,-0.8767,-0.8753,-0.8746,-0.8741,-0.8736,-0.8736,-0.8736,-0.8737,-0.8739,-0.8726,-0.8739,-0.8739,-0.8739,-0.8738,-0.8738,0,-0.8871,-0.8863,-0.8857,-0.8847,-0.8841,-0.8833,-0.8824,-0.882,-0.8815,-0.8806,-0.8799,-0.8791,-0.8783,-0.8771,-0.8763,-0.8761,-0.8756,-0.8759,-0.8759,-0.8757,-0.8743,-0.8744,-0.8763,-0.8763,-0.8763,-0.8763,-0.8763,-0.8763,-0.8878,-0.8874,-0.8867,-0.886,-0.8852,-0.8846,-0.8842,-0.8835,-0.8828,-0.882,-0.8814,-0.8806,-0.8796,-0.8787,-0.878,-0.8777,-0.8774,-0.8779,-0.8774,-0.8761,-0.8758,-0.8756,-0.8756,-0.8778,-0.8778,-0.8788,-0.8788,-0.8788]},{"header":{"parameterUnit":"m.s-1","parameterCategory":1,"la1":30.2991,"la2":30.254,"lo1":-89.0895,"lo2":-89.0444,"dy":0.0017,"dx":0.0017,"nx":28,"ny":28,"refTime":"2024-09-25T09:00:00:Z","depth":0,"parameterNumber":3,"parameterNumberName":"V-component_of_WINDS"},"data":[0,0,0,0,0,0,0,0,0,0,0,0,0,0,0,0,0,0,0,0,0,0,0,0,0,0,0,0,0,0,0,0,0,0,0,0,0,0,0,0,0,0,0,0,0,0,0,0,0,0,0,0,0,0,0,0,0,0,0.4004,0.4003,0,0.4,0.4,0.4,0.4013,0.4013,0.4013,0.4014,0.4009,0.4008,0.4008,0,0,0,0,0,0,0,0,0,0,0,0,0,0.4017,0.4017,0.4004,0.4003,0.4003,0.4,0.4,0.4,0.4012,0.4013,0.4013,0.4014,0.4009,0.4008,0.4008,0,0,0,0,0,0,0,0,0,0,0,0,0,0.4012,0.4017,0.4004,0.4009,0.401,0.4,0.4,0.4,0.4012,0.4013,0.4014,0.4014,0.4009,0.4008,0.4007,0.3991,0,0,0.4005,0.4005,0,0,0,0,0,0,0,0,0.4013,0.4012,0.4009,0.4009,0.401,0.4007,0.4003,0.3997,0.4012,0.4011,0.4014,0.4014,0.4008,0.4007,0.4005,0.3991,0.3991,0.4005,0.4005,0.4004,0.4004,0,0,0,0,0,0,0,0.4013,0.4012,0.4002,0.4008,0.4009,0.4011,0.4011,0.4002,0.4006,0.4012,0.4012,0.4012,0.4008,0.4006,0.4005,0.3991,0.4005,0.4004,0.4004,0.4004,0.3958,0.3957,0,0,0,0,0,0,0.4013,0.4012,0.4002,0.4002,0.4013,0.401,0.401,0.4007,0.4006,0.4007,0.4011,0.4013,0.4007,0.4006,0.4005,0.3982,0.4004,0.4004,0.4003,0.3958,0.3958,0.3957,0,0,0,0,0,0,0.4013,0.4012,0.4002,0.4007,0.4006,0.4009,0.4006,0.4007,0.4005,0.4006,0.4007,0.4009,0.4007,0.4006,0.3993,0.3983,0.4003,0.4003,0.3959,0.3958,0.3957,0.394,0,0,0,0,0,0,0.4014,0.4012,0.4007,0.4007,0.4006,0.3992,0.4006,0.4006,0.4004,0.4005,0.4004,0.4004,0.4007,0.3994,0.3993,0.3982,0.4002,0.396,0.3959,0.3958,0.3941,0.3938,0.3935,0,0,0,0,0,0.4014,0.4003,0.4007,0.4006,0.4,0.3992,0.3991,0.3996,0.4003,0.3997,0.3997,0.4004,0.3984,0.3993,0.3991,0.398,0.3961,0.3959,0.3958,0.3942,0.3939,0.3935,0,0,0,0,0,0,0.4003,0.4003,0.4008,0.3997,0.3994,0.3994,0.3987,0.3992,0.3987,0.3989,0.3994,0.3993,0.3979,0.3978,0.3988,0.3962,0.3974,0.3971,0.3963,0.3959,0.3956,0.3956,0.4001,0,0,0,0,0,0.3999,0.3993,0.3994,0.3984,0.3982,0.3984,0.3981,0.3984,0.3982,0.3981,0.398,0.3977,0.3969,0.3964,0.3958,0.3941,0.3939,0.3932,0.3929,0.3927,0.3924,0.3911,0.3907,0.3951,0.3951,0.3951,0,0,0.3991,0.3991,0.3987,0.3981,0.398,0.3971,0.3984,0.3976,0.3969,0.3979,0.3967,0.3966,0.3962,0.3946,0.3939,0.3945,0.3911,0.3924,0.3922,0.3921,0.3909,0.3905,0.3901,0.395,0.395,0.395,0,0,0.3972,0.3973,0.3963,0.396,0.3956,0.3957,0.3955,0.3953,0.3953,0.394,0.3946,0.3938,0.3926,0.3921,0.3918,0.3892,0.3897,0.389,0.3874,0.3861,0.3858,0.3855,0.3842,0.3838,0.3888,0.3888,0.3888,0,0.3963,0.3952,0.3957,0.3947,0.3943,0.3951,0.3939,0.3936,0.393,0.3926,0.3933,0.3915,0.3914,0.3895,0.3888,0.3886,0.388,0.389,0.3858,0.3855,0.3852,0.384,0.3836,0.3887,0.3887,0.3887,0.3887,0,0.3939,0.3931,0.3923,0.3917,0.3911,0.3901,0.3902,0.3896,0.3898,0.3897,0.3882,0.388,0.3871,0.3867,0.387,0.3847,0.385,0.3858,0.3869,0.3847,0.3836,0.3832,0.3885,0.3885,0.3886,0.3886,0,0,0.3917,0.3909,0.3906,0.3901,0.3896,0.3889,0.3877,0.3868,0.3861,0.3856,0.3844,0.3831,0.3836,0.3832,0.3834,0.3823,0.3798,0.3831,0.3831,0.3823,0.3768,0.3762,0.3757,0.3802,0.3801,0.38,0.3768,0,0.3896,0.3876,0.3877,0.3858,0.3848,0.3853,0.3842,0.3836,0.3834,0.3824,0.3822,0.3812,0.3821,0.3817,0.3807,0.3804,0.3787,0.3806,0.3788,0.3788,0.3788,0.3752,0.3746,0.3715,0.3764,0.3763,0.3763,0,0.3871,0.3863,0.3842,0.3834,0.383,0.382,0.3809,0.3801,0.3792,0.3791,0.3784,0.3787,0.3771,0.3784,0.3761,0.3774,0.3766,0.3763,0.3762,0.3759,0.3773,0.3746,0.3706,0.3701,0.3757,0.3757,0.3757,0,0.3853,0.3837,0.3822,0.3818,0.3808,0.38,0.3796,0.3789,0.3781,0.3771,0.3766,0.3755,0.3748,0.3738,0.3736,0.3746,0.3712,0.3725,0.3708,0.3708,0.3701,0.3701,0.3657,0.3699,0.3699,0.3699,0.3699,0,0.383,0.3817,0.3813,0.3803,0.3786,0.3786,0.3769,0.3765,0.3758,0.3745,0.3749,0.3737,0.3736,0.3723,0.3721,0.37,0.3698,0.3695,0.3694,0.3694,0.3694,0.3688,0.3689,0.3698,0.3698,0.3698,0.3698,0,0.3808,0.3806,0.3788,0.3779,0.3776,0.3764,0.3756,0.3745,0.3742,0.3725,0.3722,0.3716,0.37,0.3697,0.368,0.3678,0.3652,0.3655,0.3655,0.3654,0.3637,0.3637,0.3586,0.3578,0.3627,0.3627,0.3626,0,0.3794,0.3783,0.3771,0.3763,0.3758,0.3745,0.3736,0.3734,0.3725,0.3712,0.3702,0.3686,0.3673,0.3647,0.3641,0.3625,0.3626,0.3609,0.3624,0.3622,0.3622,0.3622,0.3619,0.3606,0.3606,0.3605,0.3605,0,0.3767,0.3764,0.3753,0.3738,0.3728,0.3717,0.3707,0.3699,0.3695,0.3684,0.3667,0.3657,0.3636,0.3619,0.3603,0.3597,0.3599,0.36,0.3595,0.3593,0.3592,0.3589,0.3645,0.3601,0.3602,0.3602,0.3602,0.3602,0.3746,0.3735,0.3724,0.3709,0.37,0.3689,0.3677,0.367,0.3656,0.3639,0.3638,0.3619,0.3606,0.3584,0.3576,0.3559,0.3565,0.3558,0.3556,0.3554,0.355,0.3596,0.3557,0.3557,0.3557,0.3557,0.3557,0,0.3717,0.3709,0.3695,0.3679,0.3666,0.3669,0.3656,0.3644,0.3627,0.3615,0.3601,0.3579,0.3561,0.3551,0.3533,0.3521,0.3521,0.3516,0.3516,0.3513,0.3549,0.3554,0.3515,0.3515,0.3515,0.3515,0.3515,0.3515,0.3701,0.368,0.3676,0.3649,0.3641,0.3622,0.3613,0.3601,0.3591,0.3566,0.3551,0.3544,0.3532,0.3511,0.3494,0.3491,0.3483,0.3477,0.3474,0.3507,0.3511,0.3515,0.352,0.3475,0.3475,0.344,0.344,0.3439]}]]